Temp
95 95 93 92 93 94 93 95 96 93 91 93 93 93 90 87 82 81 82 85 90 94 99 96 97 97 97 96 101 99 99 94 94 99 97 98 98 84 77 77 77 76 75 75 75 75 76 76 77 77 78 78 77 77 78 78 79 79 78 78 78 78 78 77 76 75 74 74 73 72 72 72 73 74
93 94 94 95 95 94 94 96 96 94 91 93 94 93 92 90 85 83 81 82 90 92 97 99 97 97 96 99 100 101 100 86 95 98 98 99 100 80 78 78 77 76 75 75 74 75 75 76 76 75 75 75 75 76 76 77 78 78 78 78 78 78 77 76 75 75 74 74 73 72 72 73 73 73
93 91 91 91 92 93 93 94 97 95 94 94 94 93 92 90 88 85 84 81 88 94 91 97 100 98 98 101 100 100 99 95 96 98 97 97 87 79 87 81 79 76 75 74 73 73 74 74 74 72 73 73 75 75 76 77 77 78 77 78 78 77 76 76 75 75 75 74 73 72 72 73 73 72
93 90 90 90 90 92 93 93 94 94 94 93 94 93 92 91 90 88 85 83 83 92 95 96 97 100 98 97 96 97 99 100 85 98 97 96 86 96 101 86 76 75 75 74 73 73 72 71 71 72 73 74 75 75 76 76 76 76 76 76 76 75 74 74 74 74 74 74 73 73 72 72 72 72
92 90 89 90 90 92 91 93 95 96 95 94 94 93 92 92 92 90 86 84 84 89 95 95 97 99 98 97 97 96 97 98 99 93 98 97 99 99 100 101 88 78 76 74 73 73 72 71 70 71 73 74 74 75 76 75 75 75 74 74 73 71 71 72 72 73 73 73 73 72 72 72 72 72
92 91 89 90 92 92 92 93 95 96 97 97 96 95 94 93 92 92 88 86 85 84 91 93 95 96 98 95 97 95 95 96 96 97 97 100 101 100 99 100 103 79 77 75 74 73 72 71 71 71 72 73 73 73 73 72 71 71 71 70 68 68 68 69 70 71 71 72 72 72 72 72 71 71
91 91 90 91 92 96 94 93 94 96 95 96 94 93 94 92 92 92 91 87 85 85 87 91 92 93 94 93 94 95 97 95 96 94 97 99 102 102 101 101 106 80 77 78 76 74 72 72 71 71 70 71 72 71 71 69 68 68 67 66 67 68 67 67 68 69 69 70 71 72 71 71 71 71
92 91 90 92 93 93 91 91 92 93 94 93 92 92 92 91 91 91 91 89 86 86 85 88 90 93 92 94 96 98 97 97 95 96 95 98 98 100 102 101 103 95 84 81 77 75 73 72 71 71 69 70 69 69 69 67 67 67 66 65 65 64 64 63 64 65 66 66 68 70 71 71 71 69
91 91 92 93 93 92 90 91 93 94 93 93 93 93 93 92 92 92 91 90 89 87 85 87 90 91 92 94 94 95 94 95 95 95 93 96 96 96 100 103 104 88 81 77 75 75 75 74 73 71 71 71 70 70 70 68 67 66 64 63 63 63 63 63 62 63 63 63 64 64 66 69 70 69
93 93 92 93 93 93 92 92 93 92 91 92 93 92 92 92 92 90 90 90 88 87 87 87 88 90 92 91 92 93 93 93 92 92 93 95 95 94 96 99 102 104 104 105 102 82 77 74 67 70 73 72 71 70 70 70 68 65 63 60 60 61 61 61 62 62 62 62 63 64 64 66 67 67
95 95 95 94 93 92 93 93 93 92 92 93 92 91 90 91 91 91 91 90 90 89 88 90 90 90 93 92 90 93 94 92 91 89 90 90 94 94 93 92 98 101 102 94 84 88 86 81 87 78 70 70 70 69 70 70 67 65 63 60 60 60 59 59 60 61 61 61 61 61 60 63 66 67
97 97 97 98 97 95 94 93 93 93 92 92 92 93 92 91 90 89 91 90 89 89 89 89 90 91 89 90 92 94 92 91 90 93 92 89 90 91 92 93 93 96 95 97 102 92 86 85 80 70 70 71 70 70 71 70 70 68 66 64 64 64 62 60 61 61 60 60 59 59 59 59 62 64
95 96 97 98 99 96 93 91 89 89 87 92 90 90 91 89 89 88 89 89 88 88 88 87 89 89 89 89 89 91 91 89 89 91 92 89 91 92 92 93 95 95 95 96 100 99 98 97 98 100 99 98 85 82 72 81 76 70 67 65 66 66 65 62 61 61 61 60 60 59 59 59 60 62
95 97 98 99 94 92 91 88 85 81 80 80 88 90 90 89 88 87 87 87 88 88 87 88 89 89 89 92 91 91 92 92 92 92 91 89 91 90 90 91 93 97 96 95 91 94 98 98 97 97 97 100 96 99 98 99 89 78 69 69 67 66 65 63 63 61 61 60 59 59 58 58 60 59
93 95 96 97 96 92 88 88 82 80 79 79 77 76 77 81 86 88 87 88 89 87 88 90 89 90 88 90 91 91 93 94 93 93 91 91 90 87 85 84 89 95 94 90 89 90 94 94 93 94 97 99 98 100 98 76 77 73 71 68 67 66 65 65 64 63 61 60 59 59 58 58 59 59
94 95 96 99 101 99 96 95 92 85 80 77 77 76 76 76 76 77 83 85 86 87 87 87 87 88 87 88 90 92 92 90 90 90 89 87 87 85 85 86 85 91 94 89 87 88 93 95 95 93 96 98 100 101 86 77 75 71 68 67 66 66 65 65 65 64 64 63 62 61 60 59 60 59
93 93 94 95 97 100 94 91 93 91 90 81 76 76 76 76 75 71 70 72 83 88 86 86 86 88 88 87 88 91 89 89 86 87 87 87 87 87 86 87 89 90 92 89 87 87 92 93 92 95 97 99 99 100 83 72 71 68 67 66 66 65 65 64 64 64 63 62 61 61 60 59 59 59
94 92 92 91 93 95 95 93 92 92 91 90 89 87 87 88 86 77 71 70 69 75 85 86 85 87 89 87 88 89 89 87 85 85 85 86 86 85 85 87 88 90 94 89 88 86 90 94 94 92 95 99 98 98 86 70 71 70 68 67 65 64 63 63 63 63 62 62 61 60 59 58 58 58
93 92 92 92 92 92 92 93 90 91 90 89 90 89 90 91 92 92 93 91 91 87 88 89 89 88 90 89 89 90 90 90 88 88 86 86 86 86 88 87 88 90 92 91 88 83 89 94 92 93 95 100 96 97 85 76 72 70 68 67 67 64 63 63 63 62 62 62 61 60 58 57 56 56
91 92 91 90 90 90 91 75 71 77 84 86 86 86 88 89 91 93 91 81 84 91 93 93 94 94 90 78 82 82 85 86 85 85 89 88 86 85 84 84 91 90 96 97 93 89 89 93 92 92 96 97 94 95 96 84 71 70 67 68 65 64 62 62 62 62 62 62 61 60 58 56 55 55
91 91 90 89 90 91 81 67 63 66 76 82 85 85 86 88 88 89 93 79 71 72 70 68 67 66 66 67 66 65 65 74 78 81 81 82 87 84 82 85 88 90 94 97 96 93 89 92 92 92 94 93 92 94 95 98 74 66 70 66 65 64 64 62 61 61 61 61 60 60 59 56 55 55
90 86 80 83 85 83 76 63 61 63 75 82 84 85 84 85 87 86 92 92 87 69 66 66 66 66 67 67 65 65 64 64 70 81 79 85 87 85 86 84 86 89 90 92 95 89 89 92 93 90 92 91 94 96 96 95 90 69 68 64 65 64 63 63 61 61 61 60 60 59 57 56 55 65
89 86 80 78 76 75 67 58 60 60 71 80 83 84 83 83 84 86 85 85 86 86 87 87 86 83 78 80 83 84 72 69 74 82 85 88 86 84 84 85 84 82 87 92 93 85 86 88 91 88 86 86 92 95 94 94 94 95 95 93 85 66 64 63 62 61 60 60 60 59 57 55 57 78
75 76 78 72 63 60 58 57 55 57 58 72 79 82 83 82 81 84 83 83 82 83 85 85 86 85 87 89 90 90 88 89 85 86 88 89 89 85 85 84 83 82 85 91 93 86 87 88 86 89 84 81 83 89 92 92 93 94 95 93 94 78 66 65 65 60 59 60 58 58 57 54 58 80
74 73 72 73 64 58 57 56 53 54 55 60 72 78 80 81 71 71 81 80 79 81 82 83 84 87 88 89 91 93 93 93 93 93 91 90 87 84 83 82 83 85 88 92 82 87 83 85 83 85 84 84 87 88 90 91 92 93 93 92 91 92 93 92 88 93 69 57 57 56 55 55 53 68
73 72 72 74 67 56 57 54 52 50 53 56 69 76 64 58 59 71 74 78 81 82 83 84 84 85 86 88 90 90 91 92 91 91 91 90 90 87 86 83 80 80 84 89 79 87 83 83 84 83 84 84 86 88 86 87 91 93 93 93 92 91 91 91 93 92 92 94 84 65 66 55 56 55
74 75 74 76 67 55 51 50 50 51 50 58 71 60 57 58 57 64 77 79 79 80 82 82 82 84 86 87 87 87 87 90 88 89 89 89 87 86 86 86 88 86 87 87 88 86 83 81 83 83 81 83 80 83 84 85 87 91 91 92 92 92 92 92 90 91 92 93 95 63 59 56 55 56
79 77 76 71 54 50 48 48 51 53 56 67 59 54 55 57 61 73 80 80 81 80 80 81 81 83 84 85 85 85 85 86 84 86 87 86 86 85 87 87 86 88 87 88 88 87 84 82 83 84 83 80 78 77 79 85 85 84 87 90 91 91 92 91 90 88 89 90 93 88 86 81 75 68
75 63 53 51 51 53 52 51 51 57 60 53 52 53 55 64 76 77 79 80 80 78 78 79 80 82 83 83 83 84 83 84 84 84 85 86 86 87 87 86 86 87 89 91 89 88 86 84 82 84 83 82 80 81 80 80 82 82 85 85 85 90 90 90 90 90 88 91 92 92 92 92 90 80
60 56 56 54 53 56 61 71 78 81 80 68 62 60 63 78 84 83 80 79 78 77 79 80 79 81 83 84 83 83 83 82 83 83 82 83 85 86 86 85 86 88 90 91 91 89 87 86 84 83 82 81 83 81 82 81 81 83 84 85 86 87 89 89 89 90 88 88 88 88 90 91 91 90
73 70 67 70 64 63 62 63 66 71 74 77 80 84 86 86 86 83 80 79 78 77 78 79 81 83 84 84 82 81 81 81 82 84 81 83 84 84 84 81 82 85 88 89 90 89 88 87 86 83 80 82 82 81 82 82 80 82 83 86 86 81 85 88 89 89 90 89 89 89 89 89 89 89
76 76 73 69 72 75 76 79 81 82 83 83 82 85 85 85 85 81 80 80 80 79 79 80 80 80 81 81 83 83 83 84 83 82 81 81 80 82 82 80 80 83 84 86 88 88 87 87 85 85 82 78 78 79 81 81 81 82 83 84 85 88 88 88 88 89 89 88 86 85 87 89 89 89
73 76 78 79 80 81 82 83 84 85 85 83 83 84 83 84 86 83 81 80 78 77 77 77 77 79 80 80 81 82 82 81 82 82 81 81 80 80 81 80 81 81 81 83 84 85 86 86 86 85 84 84 81 78 78 79 80 84 84 85 85 85 88 89 88 88 87 85 84 84 84 85 88 88
70 76 78 79 80 81 82 83 82 84 84 82 82 83 77 81 84 80 79 79 78 77 76 78 78 78 78 79 79 79 79 80 81 81 76 79 80 79 79 80 81 83 81 82 83 84 84 84 84 84 85 84 84 83 80 79 81 84 85 86 85 84 86 87 88 87 87 86 84 83 84 86 88 90
73 76 77 79 81 79 81 81 81 80 81 80 80 81 81 82 80 78 78 77 75 76 77 77 77 77 77 77 78 77 77 77 79 80 81 81 80 80 80 80 81 81 81 81 82 82 82 81 81 82 81 82 82 84 82 84 83 82 84 84 86 83 83 83 81 82 84 85 83 80 83 84 86 90
74 78 78 79 80 80 79 80 79 80 80 79 79 79 79 79 79 77 76 73 75 76 77 76 75 76 76 76 76 76 76 75 77 78 78 79 79 80 81 80 79 79 80 80 81 82 82 81 81 79 77 77 78 78 83 78 78 85 82 81 82 81 83 83 84 85 84 82 83 83 80 81 85 88
74 77 78 79 79 80 79 79 79 78 79 78 77 77 76 76 77 76 74 71 74 75 75 75 76 76 75 75 74 74 75 76 76 76 76 78 78 78 77 77 77 77 77 79 80 80 81 80 81 79 77 76 76 76 79 85 73 71 84 82 82 83 82 82 82 82 85 84 83 84 82 82 84 87
74 76 77 78 78 78 77 78 78 77 76 76 75 75 76 76 75 74 74 74 74 73 74 75 75 75 75 74 74 74 75 76 76 75 75 76 76 75 75 74 75 75 76 76 78 79 81 80 80 80 77 73 72 72 73 77 80 79 72 80 81 82 83 82 82 82 83 86 86 86 87 86 86 88
75 75 76 76 76 77 76 76 76 75 75 75 75 75 74 75 75 74 74 74 72 72 73 73 74 73 72 73 73 73 73 73 73 73 74 75 75 74 74 74 73 74 74 74 76 78 80 80 80 80 75 70 70 72 73 72 74 80 77 66 79 82 82 83 83 84 84 84 85 87 87 88 86 75
74 74 74 74 74 76 76 76 75 76 75 75 75 75 74 73 73 73 74 72 71 71 72 72 71 70 73 73 73 74 73 72 72 73 73 73 73 73 73 72 71 71 71 73 74 76 77 78 79 75 72 74 75 76 77 77 78 80 82 78 63 73 84 84 82 82 82 84 84 84 83 85 85 88
76 74 75 75 74 74 73 74 74 74 74 74 74 71 73 72 70 72 72 70 69 71 72 72 72 71 72 73 72 72 71 71 72 73 72 72 71 71 69 66 69 72 72 72 73 74 75 77 74 66 71 74 75 77 76 74 74 78 80 84 71 61 60 68 81 82 81 81 81 81 81 82 84 85
75 74 74 74 74 73 73 72 72 72 71 72 72 72 71 70 70 69 70 70 71 70 72 73 73 72 72 72 72 71 70 70 70 70 71 71 71 70 68 69 71 72 71 70 72 73 75 75 75 75 75 75 74 72 71 72 73 76 77 80 81 73 67 58 57 63 77 81 81 79 80 82 83 82
73 74 73 74 74 73 72 72 71 71 71 70 70 69 68 70 71 71 72 71 71 72 72 73 72 72 72 72 72 71 70 70 70 70 69 69 69 69 69 70 70 70 71 71 72 73 74 75 74 74 74 73 73 73 70 71 73 73 75 77 79 82 82 71 66 61 58 60 63 72 80 79 77 75
72 72 74 73 72 71 71 71 71 71 71 70 70 69 70 70 70 71 71 71 72 72 72 71 71 71 71 71 71 70 70 70 70 68 67 67 67 68 68 69 69 69 71 71 71 72 73 73 74 74 72 71 72 71 70 71 72 73 74 75 75 75 76 80 82 72 69 66 62 59 59 62 64 63
71 71 70 70 70 70 70 71 71 71 71 71 70 69 69 69 70 71 71 71 71 71 71 71 71 71 70 70 69 68 69 64 66 67 68 69 69 69 69 69 69 69 69 70 69 69 71 72 73 73 72 72 72 71 71 70 70 70 72 72 72 74 76 77 77 78 79 82 68 55 60 57 61 58
MSLP
1021.95 1021.91 1022.15 1022.35 1022.23 1022.07 1021.91 1021.87 1021.51 1021.87 1022.11 1022.03 1021.99 1022.11 1022.91 1023.47 1024.63 1024.99 1024.59 1023.75 1022.91 1021.35 1020.43 1021.15 1020.11 1019.71 1019.67 1019.67 1019.07 1018.95 1018.87 1018.79 1018.91 1018.75 1018.63 1018.51 1018.27 1018.35 1018.47 1018.47 1018.39 1018.35 1018.35 1018.31 1018.23 1018.15 1018.03 1017.91 1017.75 1017.63 1017.47 1017.35 1017.27 1017.15 1017.03 1016.91 1016.79 1016.71 1016.63 1016.55 1016.47 1016.39 1016.35 1016.39 1016.43 1016.39 1016.39 1016.43 1016.51 1016.51 1016.51 1016.51 1016.47 1016.39
1021.99 1021.95 1021.95 1021.91 1022.03 1021.83 1021.87 1021.67 1021.51 1021.75 1022.15 1022.07 1021.99 1021.99 1022.11 1022.55 1023.87 1024.23 1024.91 1024.35 1022.47 1022.07 1020.67 1020.23 1020.43 1019.67 1019.71 1019.19 1018.95 1018.63 1018.67 1018.75 1018.79 1018.71 1018.59 1018.43 1018.19 1018.39 1018.35 1018.23 1018.19 1018.15 1018.19 1018.15 1018.11 1017.99 1017.87 1017.75 1017.63 1017.47 1017.35 1017.23 1017.11 1016.95 1016.83 1016.67 1016.59 1016.47 1016.43 1016.35 1016.23 1016.15 1016.11 1016.11 1016.19 1016.19 1016.15 1016.19 1016.27 1016.27 1016.31 1016.31 1016.27 1016.23
1022.03 1022.35 1022.47 1022.23 1022.27 1022.03 1021.99 1021.91 1021.51 1021.47 1021.79 1021.83 1021.83 1021.95 1022.03 1022.35 1022.71 1023.39 1023.87 1024.71 1022.47 1021.31 1021.91 1020.59 1019.67 1019.83 1019.43 1019.11 1019.15 1018.95 1018.71 1018.59 1018.63 1018.63 1018.51 1018.35 1018.27 1018.31 1017.99 1017.79 1017.83 1017.87 1017.87 1017.91 1017.83 1017.75 1017.67 1017.55 1017.43 1017.27 1017.19 1017.07 1016.91 1016.79 1016.63 1016.51 1016.35 1016.27 1016.19 1016.11 1016.07 1015.99 1015.95 1015.91 1015.95 1015.95 1015.95 1015.99 1016.03 1016.07 1016.07 1016.11 1016.11 1016.07
1021.95 1022.31 1022.51 1022.47 1022.39 1022.07 1021.99 1021.91 1021.79 1021.71 1021.59 1021.67 1021.75 1021.75 1021.99 1022.15 1022.19 1022.55 1023.27 1023.95 1023.75 1021.55 1021.15 1020.63 1020.03 1019.39 1019.35 1019.23 1019.51 1019.27 1018.87 1018.31 1018.51 1018.47 1018.39 1018.15 1018.11 1017.79 1017.27 1017.23 1017.43 1017.43 1017.47 1017.51 1017.55 1017.51 1017.43 1017.31 1017.19 1017.11 1016.99 1016.87 1016.71 1016.59 1016.43 1016.35 1016.23 1016.15 1016.03 1015.95 1015.87 1015.83 1015.79 1015.75 1015.75 1015.75 1015.75 1015.75 1015.79 1015.87 1015.91 1015.91 1015.91 1015.91
1021.99 1022.27 1022.47 1022.39 1022.19 1021.95 1022.19 1021.99 1021.67 1021.51 1021.43 1021.39 1021.47 1021.55 1021.79 1021.99 1021.83 1022.27 1022.99 1023.63 1023.31 1021.91 1020.59 1020.59 1020.23 1019.47 1019.39 1019.59 1019.27 1019.51 1019.11 1018.79 1018.43 1018.35 1018.03 1017.95 1017.75 1017.47 1017.19 1016.95 1016.83 1016.91 1017.03 1017.15 1017.19 1017.19 1017.11 1017.03 1016.95 1016.87 1016.75 1016.63 1016.47 1016.35 1016.19 1016.07 1016.03 1015.95 1015.91 1015.83 1015.75 1015.67 1015.63 1015.55 1015.55 1015.55 1015.55 1015.55 1015.59 1015.63 1015.71 1015.75 1015.75 1015.71
1022.03 1022.07 1022.39 1022.31 1022.03 1021.75 1021.99 1021.83 1021.75 1021.35 1021.19 1021.23 1021.35 1021.35 1021.51 1021.71 1021.75 1021.51 1022.51 1022.91 1023.11 1023.07 1021.39 1020.99 1020.11 1019.99 1019.31 1020.07 1019.11 1019.59 1019.59 1019.15 1018.79 1018.63 1018.27 1017.71 1017.39 1017.27 1017.03 1016.83 1016.47 1016.55 1016.67 1016.79 1016.83 1016.83 1016.79 1016.71 1016.67 1016.63 1016.47 1016.35 1016.23 1016.07 1015.95 1015.83 1015.75 1015.71 1015.67 1015.63 1015.59 1015.51 1015.47 1015.39 1015.35 1015.35 1015.35 1015.35 1015.39 1015.43 1015.51 1015.55 1015.55 1015.55
1021.91 1022.11 1022.23 1022.11 1021.83 1021.43 1021.63 1021.71 1021.55 1021.19 1021.31 1021.15 1021.43 1021.55 1021.35 1021.63 1021.55 1021.39 1021.63 1022.47 1023.03 1022.83 1022.27 1021.07 1020.87 1020.35 1019.95 1020.15 1019.83 1019.31 1018.99 1018.91 1018.67 1018.79 1018.39 1017.95 1017.39 1017.03 1016.87 1016.71 1016.27 1016.27 1016.39 1016.47 1016.43 1016.43 1016.43 1016.39 1016.35 1016.27 1016.15 1016.03 1015.91 1015.79 1015.67 1015.59 1015.51 1015.47 1015.43 1015.39 1015.35 1015.31 1015.27 1015.23 1015.23 1015.19 1015.19 1015.19 1015.19 1015.19 1015.23 1015.31 1015.35 1015.39
1021.75 1021.95 1022.11 1021.91 1021.59 1021.47 1021.83 1021.87 1021.67 1021.39 1021.27 1021.39 1021.47 1021.55 1021.43 1021.51 1021.63 1021.51 1021.47 1021.67 1022.27 1022.31 1022.55 1021.55 1021.19 1020.47 1020.47 1019.95 1019.27 1018.91 1018.75 1018.75 1018.67 1018.55 1018.23 1017.75 1017.59 1017.23 1016.87 1016.59 1016.19 1015.87 1016.07 1016.03 1015.99 1015.99 1016.03 1015.99 1015.95 1015.91 1015.79 1015.67 1015.55 1015.43 1015.35 1015.27 1015.23 1015.19 1015.15 1015.11 1015.11 1015.11 1015.11 1015.11 1015.07 1015.07 1015.07 1015.07 1015.07 1015.03 1015.03 1015.07 1015.15 1015.23
1021.67 1021.75 1021.79 1021.55 1021.47 1021.51 1021.87 1021.71 1021.55 1021.19 1021.35 1021.27 1021.23 1021.35 1021.19 1021.31 1021.23 1021.23 1021.31 1021.39 1021.43 1021.91 1022.19 1021.67 1020.75 1020.31 1020.11 1019.59 1019.27 1018.95 1019.31 1018.95 1018.59 1018.23 1018.27 1017.99 1017.71 1017.39 1016.91 1016.43 1015.95 1015.83 1015.67 1015.59 1015.59 1015.67 1015.67 1015.59 1015.55 1015.59 1015.51 1015.35 1015.23 1015.11 1014.99 1014.91 1014.87 1014.83 1014.83 1014.83 1014.83 1014.83 1014.87 1014.87 1014.87 1014.87 1014.87 1014.91 1014.91 1014.91 1014.87 1014.91 1014.95 1015.07
1021.23 1021.35 1021.39 1021.27 1021.23 1021.31 1021.59 1021.51 1021.23 1021.19 1021.43 1021.35 1021.35 1021.35 1021.27 1021.15 1021.11 1021.27 1021.23 1021.19 1021.35 1021.55 1021.59 1021.47 1021.23 1020.35 1020.27 1019.95 1019.63 1019.15 1019.03 1019.27 1019.15 1018.75 1018.15 1017.67 1017.43 1017.43 1017.31 1016.75 1016.23 1015.71 1015.47 1015.31 1015.19 1015.23 1015.23 1015.11 1015.31 1015.19 1015.07 1015.03 1014.87 1014.79 1014.67 1014.55 1014.51 1014.51 1014.47 1014.51 1014.55 1014.59 1014.59 1014.63 1014.63 1014.63 1014.63 1014.67 1014.67 1014.67 1014.67 1014.71 1014.79 1014.87
1020.71 1020.75 1020.83 1020.91 1020.95 1021.11 1021.07 1021.11 1021.11 1021.07 1021.15 1021.15 1021.19 1021.19 1021.27 1021.15 1021.23 1021.23 1021.07 1020.99 1021.15 1021.19 1021.27 1020.91 1020.59 1020.47 1019.75 1019.71 1020.07 1019.03 1018.55 1018.75 1018.91 1019.23 1018.87 1018.59 1017.63 1017.39 1017.39 1017.39 1016.47 1015.83 1015.59 1015.27 1015.15 1014.95 1014.87 1014.83 1014.71 1014.59 1014.71 1014.63 1014.51 1014.47 1014.39 1014.23 1014.19 1014.15 1014.15 1014.15 1014.19 1014.23 1014.27 1014.31 1014.35 1014.35 1014.39 1014.39 1014.43 1014.47 1014.51 1014.51 1014.55 1014.67
1020.39 1020.31 1020.31 1020.23 1020.23 1020.43 1020.55 1020.71 1020.71 1020.75 1021.03 1020.83 1021.11 1020.75 1020.79 1020.91 1021.23 1021.31 1021.11 1021.07 1021.15 1021.23 1021.15 1021.07 1020.79 1020.35 1020.39 1019.95 1019.23 1018.71 1018.71 1019.07 1018.91 1018.39 1018.59 1018.91 1018.35 1017.87 1017.19 1016.87 1016.91 1016.19 1015.95 1015.71 1014.95 1014.55 1014.55 1014.43 1014.35 1014.31 1014.23 1014.11 1014.07 1014.03 1013.95 1013.83 1013.75 1013.75 1013.75 1013.75 1013.79 1013.83 1013.87 1013.95 1013.99 1014.03 1014.11 1014.15 1014.19 1014.23 1014.27 1014.31 1014.35 1014.39
1020.27 1020.19 1020.07 1019.91 1019.79 1019.79 1020.11 1020.35 1020.47 1020.43 1020.55 1020.83 1021.03 1020.87 1020.79 1021.03 1021.15 1021.23 1021.15 1021.11 1021.19 1021.23 1021.11 1021.03 1020.51 1020.43 1020.27 1019.91 1019.75 1019.47 1019.35 1019.43 1019.31 1018.31 1018.07 1018.35 1017.87 1017.39 1017.23 1016.67 1016.07 1015.99 1016.03 1015.55 1015.11 1015.07 1014.91 1014.71 1014.35 1014.03 1013.91 1013.55 1013.51 1013.31 1013.35 1013.15 1013.15 1013.39 1013.55 1013.55 1013.47 1013.47 1013.51 1013.55 1013.63 1013.71 1013.79 1013.87 1013.91 1013.99 1014.03 1014.11 1014.15 1014.23
1020.23 1020.03 1019.87 1019.63 1019.71 1019.95 1020.15 1020.31 1020.43 1020.59 1020.71 1020.87 1020.87 1020.79 1020.75 1020.87 1021.07 1021.19 1021.23 1021.19 1020.99 1020.99 1021.19 1020.87 1020.51 1020.47 1020.23 1019.63 1019.27 1019.19 1018.67 1018.15 1017.79 1017.83 1017.83 1018.31 1017.71 1017.43 1017.43 1016.87 1016.19 1015.47 1015.59 1015.71 1015.95 1015.43 1014.59 1014.59 1014.39 1014.03 1013.99 1013.27 1013.03 1012.83 1012.63 1012.63 1012.87 1013.27 1013.39 1013.35 1013.31 1013.23 1013.23 1013.27 1013.31 1013.39 1013.47 1013.59 1013.67 1013.71 1013.79 1013.87 1013.95 1014.03
1020.35 1019.95 1019.71 1019.55 1019.51 1019.75 1020.03 1020.15 1020.31 1020.51 1020.67 1020.79 1020.87 1020.87 1020.79 1020.71 1020.87 1020.99 1021.07 1020.91 1020.63 1020.83 1020.75 1020.23 1020.15 1020.07 1019.99 1019.47 1018.79 1018.75 1018.39 1017.99 1017.83 1017.75 1017.63 1017.79 1017.79 1018.15 1018.39 1018.43 1016.63 1015.19 1015.39 1015.87 1016.07 1015.67 1014.59 1014.39 1014.75 1014.11 1013.71 1013.27 1012.95 1012.59 1012.51 1012.83 1012.95 1013.07 1013.07 1013.07 1013.07 1013.03 1013.03 1013.03 1013.07 1013.11 1013.15 1013.27 1013.35 1013.43 1013.55 1013.63 1013.75 1013.83
1019.79 1019.75 1019.51 1019.19 1018.87 1018.95 1019.23 1019.47 1019.79 1020.11 1020.27 1020.39 1020.43 1020.47 1020.47 1020.47 1020.47 1020.47 1020.71 1020.87 1020.83 1020.59 1020.59 1020.47 1020.19 1019.99 1019.87 1019.39 1018.87 1018.51 1018.27 1018.23 1017.99 1017.79 1017.79 1017.95 1018.11 1018.15 1018.15 1017.75 1017.71 1015.71 1014.95 1015.87 1016.11 1015.79 1014.43 1013.95 1014.15 1014.11 1013.51 1012.91 1012.51 1012.27 1012.43 1012.59 1012.67 1012.75 1012.79 1012.83 1012.87 1012.87 1012.83 1012.83 1012.79 1012.79 1012.83 1012.91 1012.99 1013.07 1013.19 1013.31 1013.43 1013.55
1019.59 1019.59 1019.59 1019.43 1019.11 1018.75 1018.95 1019.39 1019.47 1019.67 1019.75 1019.91 1020.07 1020.07 1020.11 1020.11 1020.11 1020.19 1020.23 1020.23 1020.27 1019.91 1020.23 1020.27 1020.03 1019.71 1019.39 1019.39 1018.87 1018.31 1018.27 1017.99 1018.55 1018.19 1018.11 1017.83 1017.63 1017.51 1017.63 1017.27 1016.67 1015.75 1014.95 1015.63 1015.95 1015.79 1014.51 1013.99 1013.99 1013.75 1012.87 1012.43 1012.15 1012.07 1012.03 1012.31 1012.47 1012.59 1012.59 1012.59 1012.59 1012.59 1012.59 1012.59 1012.55 1012.51 1012.51 1012.55 1012.63 1012.67 1012.75 1012.91 1013.03 1013.15
1019.11 1019.27 1019.47 1019.59 1019.51 1019.07 1018.99 1019.07 1019.31 1019.47 1019.55 1019.51 1019.63 1019.75 1019.75 1019.59 1019.43 1019.59 1019.79 1019.91 1019.95 1020.03 1019.91 1019.79 1019.87 1019.03 1018.71 1019.03 1018.47 1017.95 1017.87 1018.39 1018.55 1018.39 1018.23 1017.75 1017.67 1017.55 1017.39 1016.51 1016.15 1015.35 1014.79 1015.67 1015.59 1015.63 1014.67 1013.67 1013.63 1013.75 1012.79 1012.03 1011.91 1011.71 1011.71 1012.03 1012.15 1012.31 1012.39 1012.47 1012.43 1012.35 1012.31 1012.31 1012.27 1012.23 1012.19 1012.19 1012.23 1012.31 1012.39 1012.51 1012.71 1012.83
1018.99 1019.03 1019.15 1019.23 1019.31 1019.19 1019.15 1018.99 1019.19 1019.31 1019.43 1019.51 1019.55 1019.51 1019.43 1019.19 1018.91 1018.75 1018.79 1018.95 1019.03 1019.19 1019.11 1019.03 1018.79 1018.47 1018.11 1017.99 1017.79 1017.59 1017.39 1017.59 1017.59 1017.55 1017.71 1017.51 1017.31 1016.91 1016.27 1016.03 1015.59 1015.15 1014.35 1014.59 1015.19 1016.23 1014.47 1013.39 1013.79 1013.35 1012.59 1011.91 1011.79 1011.43 1011.51 1011.59 1011.71 1011.91 1012.07 1012.23 1012.23 1012.11 1011.99 1011.95 1011.91 1011.91 1011.91 1011.83 1011.83 1011.91 1012.03 1012.19 1012.35 1012.51
1018.79 1018.83 1018.99 1019.19 1019.19 1019.19 1019.19 1019.87 1019.91 1019.95 1019.83 1019.87 1019.87 1019.79 1019.51 1019.27 1018.87 1018.63 1018.27 1018.23 1018.19 1018.23 1018.15 1018.07 1017.95 1017.75 1017.75 1017.91 1017.95 1017.91 1017.87 1017.75 1017.55 1017.43 1017.11 1016.91 1016.99 1017.07 1017.11 1016.95 1015.67 1015.35 1013.79 1013.39 1014.15 1014.75 1014.23 1013.11 1013.63 1013.31 1012.27 1011.87 1012.03 1011.51 1011.31 1011.15 1011.35 1011.51 1011.71 1011.83 1011.91 1011.95 1011.91 1011.87 1011.83 1011.75 1011.67 1011.59 1011.55 1011.55 1011.67 1011.79 1011.91 1012.11
1018.79 1018.79 1018.87 1019.11 1019.19 1019.07 1019.99 1020.43 1020.39 1020.43 1020.35 1020.19 1019.99 1019.83 1019.67 1019.47 1019.39 1019.03 1018.27 1018.07 1018.15 1018.11 1018.19 1018.23 1018.27 1018.23 1018.15 1017.99 1017.87 1017.79 1017.75 1017.79 1017.75 1017.91 1018.15 1017.99 1017.19 1017.43 1017.55 1016.75 1016.07 1015.31 1014.07 1013.23 1013.27 1013.91 1014.23 1013.19 1013.15 1013.19 1012.47 1012.19 1012.15 1011.79 1011.23 1010.67 1010.91 1011.23 1011.35 1011.39 1011.47 1011.51 1011.55 1011.59 1011.67 1011.63 1011.63 1011.55 1011.43 1011.35 1011.35 1011.43 1011.55 1011.75
1018.79 1019.11 1019.59 1019.67 1019.71 1019.99 1020.59 1020.79 1020.71 1020.67 1020.47 1020.23 1019.95 1019.79 1019.95 1019.87 1019.55 1019.35 1018.43 1018.27 1018.51 1018.47 1018.15 1018.11 1018.03 1017.91 1017.79 1017.67 1017.59 1017.51 1017.43 1017.31 1017.47 1017.91 1018.31 1017.27 1016.87 1017.07 1016.71 1016.87 1016.03 1015.11 1014.39 1013.99 1013.19 1014.23 1014.19 1013.19 1012.83 1013.27 1012.51 1012.11 1011.67 1011.27 1010.83 1010.71 1010.79 1010.95 1010.95 1010.95 1010.99 1011.07 1011.11 1011.15 1011.23 1011.27 1011.23 1011.23 1011.23 1011.23 1011.19 1011.23 1011.47 1011.63
1018.83 1019.23 1019.99 1020.19 1020.31 1020.63 1021.07 1020.99 1020.99 1021.07 1020.79 1020.31 1020.07 1019.83 1019.91 1019.95 1019.87 1019.23 1018.99 1018.99 1018.83 1018.67 1018.51 1018.19 1017.99 1017.79 1017.47 1017.27 1017.07 1016.83 1016.63 1016.55 1016.67 1016.79 1016.75 1016.35 1016.67 1016.91 1016.55 1016.31 1016.11 1016.19 1015.03 1013.67 1013.11 1014.83 1014.27 1013.95 1013.19 1013.43 1013.79 1013.75 1012.11 1011.15 1010.99 1010.87 1010.63 1010.47 1010.35 1010.35 1010.47 1010.63 1010.79 1010.87 1010.75 1010.71 1010.75 1010.79 1010.95 1011.07 1011.23 1011.43 1011.59 1011.15
1020.75 1020.59 1020.59 1020.95 1020.95 1020.95 1021.15 1021.35 1021.47 1021.47 1021.39 1020.95 1020.31 1019.99 1019.99 1019.95 1019.83 1019.27 1019.27 1019.11 1019.15 1019.07 1018.83 1018.47 1018.07 1017.83 1017.27 1016.83 1016.43 1016.23 1016.27 1015.83 1015.75 1015.99 1015.95 1015.83 1015.87 1016.23 1016.23 1016.11 1016.07 1016.19 1015.19 1013.47 1012.95 1014.47 1014.07 1013.75 1014.03 1013.23 1014.07 1014.55 1014.19 1012.19 1011.23 1011.03 1010.59 1010.35 1010.11 1010.19 1010.27 1010.19 1010.35 1010.39 1010.39 1010.27 1010.23 1010.31 1010.43 1010.67 1010.95 1011.19 1011.35 1010.95
1021.51 1021.47 1021.35 1021.15 1021.27 1021.23 1021.23 1021.23 1021.31 1021.43 1021.43 1021.35 1020.83 1020.23 1019.99 1019.91 1020.19 1020.03 1019.59 1019.35 1019.31 1019.15 1018.79 1018.43 1017.99 1017.55 1017.11 1016.67 1016.27 1015.87 1015.63 1015.51 1015.27 1015.19 1015.31 1015.39 1015.59 1015.99 1016.11 1016.07 1015.79 1015.35 1014.35 1013.27 1013.03 1013.83 1014.59 1014.07 1014.27 1013.71 1013.75 1013.63 1012.99 1012.63 1011.59 1011.15 1010.59 1010.35 1010.11 1010.15 1010.31 1009.91 1009.83 1009.79 1009.59 1009.35 1009.43 1009.71 1009.83 1010.07 1010.43 1010.71 1010.91 1010.71
1021.31 1021.43 1021.43 1021.27 1021.23 1021.19 1021.19 1021.15 1021.19 1021.31 1021.27 1021.15 1020.75 1020.07 1020.15 1020.19 1020.27 1020.27 1019.95 1019.55 1019.15 1018.91 1018.63 1018.27 1018.07 1017.83 1017.59 1017.23 1016.71 1016.39 1016.15 1015.75 1015.51 1015.47 1015.35 1015.15 1015.07 1015.07 1015.19 1015.63 1015.99 1015.79 1014.99 1013.35 1013.15 1013.67 1014.19 1014.27 1013.91 1013.91 1013.63 1013.51 1012.75 1012.35 1012.43 1011.83 1010.91 1010.35 1009.87 1009.79 1009.87 1009.87 1009.79 1009.75 1009.51 1009.35 1009.03 1008.87 1009.15 1009.67 1009.87 1010.15 1010.31 1010.35
1021.31 1021.15 1021.15 1020.91 1020.99 1021.15 1021.23 1021.15 1021.03 1020.91 1020.91 1020.67 1020.23 1020.07 1020.03 1020.07 1020.15 1020.19 1019.63 1019.35 1019.35 1019.07 1018.63 1018.47 1018.35 1017.95 1017.55 1017.31 1017.11 1016.83 1016.55 1016.03 1015.83 1015.75 1015.51 1015.27 1015.11 1014.99 1014.71 1014.43 1014.35 1014.39 1013.83 1013.39 1013.11 1013.35 1013.91 1014.15 1013.39 1013.71 1013.87 1013.35 1013.59 1012.83 1012.55 1012.39 1011.59 1010.31 1010.23 1009.99 1009.75 1009.51 1009.35 1009.43 1009.63 1009.47 1008.99 1008.67 1008.27 1008.83 1009.31 1009.67 1009.75 1009.75
1020.75 1020.99 1020.95 1020.99 1021.11 1021.15 1021.15 1021.03 1020.83 1020.67 1020.63 1020.31 1019.95 1019.99 1019.91 1019.87 1019.99 1019.75 1019.15 1019.03 1018.91 1018.91 1018.79 1018.59 1018.31 1018.03 1017.67 1017.47 1017.35 1017.07 1016.75 1016.47 1016.19 1015.91 1015.55 1015.31 1015.07 1014.91 1014.59 1014.19 1013.99 1013.67 1013.47 1013.19 1012.91 1012.95 1013.27 1013.63 1013.27 1012.87 1012.99 1013.35 1013.75 1013.87 1013.35 1011.71 1011.67 1011.31 1010.87 1009.99 1009.79 1009.63 1009.35 1009.31 1009.35 1009.23 1009.03 1008.71 1008.39 1008.59 1008.91 1009.23 1009.23 1009.59
1020.75 1020.99 1021.07 1020.95 1020.83 1020.83 1020.79 1020.79 1020.71 1020.35 1020.15 1020.15 1019.95 1019.79 1019.71 1019.71 1019.39 1019.15 1019.03 1018.99 1019.03 1019.15 1019.07 1018.83 1018.63 1018.27 1017.87 1017.55 1017.31 1016.91 1016.71 1016.39 1016.03 1015.83 1015.51 1015.11 1014.79 1014.43 1014.19 1013.95 1013.75 1013.47 1013.19 1012.79 1012.71 1012.67 1012.79 1013.03 1013.15 1012.59 1012.59 1012.63 1013.11 1012.67 1012.51 1012.43 1011.91 1011.43 1010.79 1010.75 1010.75 1009.75 1009.35 1009.11 1009.03 1009.07 1008.87 1008.51 1008.35 1008.19 1008.27 1008.03 1008.11 1008.47
1020.83 1020.75 1020.75 1020.79 1020.75 1020.59 1020.47 1020.19 1019.83 1019.51 1019.43 1019.59 1019.55 1019.47 1019.35 1019.03 1018.43 1018.63 1018.99 1019.11 1019.27 1019.39 1019.07 1018.95 1018.83 1018.35 1017.75 1017.43 1017.07 1016.91 1016.67 1016.59 1016.35 1015.99 1015.91 1015.67 1015.23 1014.71 1014.47 1014.31 1013.91 1013.27 1012.83 1012.51 1012.31 1012.19 1012.27 1012.27 1012.35 1012.43 1012.55 1012.47 1012.31 1012.47 1012.07 1011.95 1011.71 1011.11 1010.71 1010.75 1010.23 1009.47 1009.15 1009.03 1008.95 1008.79 1008.75 1008.67 1008.43 1008.31 1007.87 1007.67 1007.55 1007.51
1020.39 1020.39 1020.51 1020.35 1020.31 1020.19 1019.99 1019.95 1019.79 1019.75 1019.51 1019.31 1018.95 1018.63 1018.39 1018.35 1018.31 1018.55 1019.03 1019.19 1019.27 1019.23 1019.15 1018.87 1018.47 1017.99 1017.55 1017.19 1017.11 1017.03 1016.83 1016.71 1016.31 1015.87 1015.95 1015.83 1015.47 1015.07 1014.75 1014.79 1014.51 1013.71 1012.91 1012.35 1012.11 1012.07 1012.11 1012.03 1011.99 1012.19 1012.67 1012.31 1012.11 1012.07 1011.67 1011.51 1011.71 1011.27 1010.71 1010.15 1010.07 1010.91 1009.55 1008.91 1008.67 1008.55 1008.35 1008.23 1008.03 1007.83 1007.75 1007.59 1007.39 1007.15
1020.43 1020.31 1020.15 1020.11 1019.99 1019.83 1019.79 1019.55 1019.35 1019.15 1018.95 1018.91 1018.91 1018.67 1018.71 1018.63 1018.47 1018.87 1018.95 1018.83 1018.83 1018.95 1018.87 1018.67 1018.35 1018.07 1017.75 1017.63 1017.27 1016.95 1016.71 1016.51 1016.31 1016.03 1016.07 1016.03 1015.79 1015.31 1015.03 1015.11 1014.71 1013.95 1013.35 1012.75 1012.27 1011.91 1011.87 1011.87 1011.91 1011.83 1012.11 1012.63 1012.67 1012.03 1011.67 1011.71 1011.47 1010.95 1010.51 1009.95 1009.67 1009.23 1008.91 1009.03 1008.71 1008.35 1008.03 1008.11 1008.31 1008.27 1007.87 1007.55 1007.47 1007.07
1020.59 1020.23 1019.99 1019.71 1019.51 1019.35 1019.23 1018.95 1018.91 1018.83 1018.87 1018.99 1018.95 1018.95 1019.03 1018.79 1018.43 1018.71 1018.99 1019.15 1019.19 1019.15 1019.03 1018.83 1018.59 1018.19 1017.87 1017.71 1017.35 1017.07 1016.83 1016.59 1016.35 1015.95 1016.03 1015.79 1015.75 1015.35 1015.07 1015.11 1014.59 1014.19 1013.95 1013.43 1012.83 1012.31 1011.91 1011.75 1011.51 1011.59 1011.55 1011.47 1011.63 1011.95 1012.11 1011.91 1011.15 1010.39 1010.23 1009.75 1009.47 1009.39 1008.95 1008.51 1008.43 1008.31 1007.95 1008.27 1008.51 1008.15 1007.91 1007.43 1007.03 1006.79
1021.03 1020.27 1019.95 1019.75 1019.55 1019.35 1019.23 1019.15 1019.07 1018.95 1018.99 1019.11 1019.15 1018.95 1019.11 1018.95 1018.71 1019.11 1019.15 1019.15 1019.27 1019.19 1019.03 1018.67 1018.39 1018.23 1018.07 1017.87 1017.55 1017.35 1017.15 1016.83 1016.47 1016.11 1016.07 1015.91 1015.55 1015.59 1015.31 1014.99 1014.51 1013.87 1013.71 1013.51 1013.07 1012.63 1012.23 1012.07 1011.83 1011.47 1011.19 1011.07 1010.75 1010.83 1011.23 1011.51 1010.91 1010.27 1009.75 1009.47 1009.31 1009.31 1008.75 1008.43 1008.19 1008.03 1007.95 1008.07 1008.07 1008.15 1007.79 1007.31 1006.67 1006.19
1020.71 1020.27 1020.03 1019.63 1019.31 1019.51 1019.35 1019.19 1019.27 1019.39 1019.43 1019.35 1019.47 1019.31 1019.07 1018.95 1018.95 1019.15 1019.23 1019.43 1019.47 1019.19 1018.91 1018.67 1018.51 1018.31 1018.15 1018.03 1017.75 1017.63 1017.43 1017.15 1016.79 1016.27 1015.79 1015.55 1015.43 1015.35 1015.11 1014.95 1014.43 1014.07 1013.83 1013.55 1013.19 1012.71 1012.55 1012.43 1012.23 1012.07 1011.71 1011.43 1011.23 1010.31 1009.51 1009.63 1010.31 1009.99 1009.63 1009.39 1009.07 1009.07 1008.95 1008.67 1008.75 1008.59 1008.31 1007.87 1007.95 1008.35 1007.71 1007.23 1006.75 1005.91
1020.59 1019.95 1019.79 1019.59 1019.47 1019.51 1019.59 1019.43 1019.55 1019.59 1019.59 1019.55 1019.59 1019.51 1019.43 1019.35 1019.19 1019.39 1019.51 1019.71 1019.55 1019.23 1018.99 1018.95 1018.79 1018.47 1018.27 1018.11 1017.95 1017.79 1017.51 1017.27 1016.87 1016.47 1016.19 1015.91 1015.63 1015.27 1014.91 1014.79 1014.63 1014.43 1014.15 1013.91 1013.43 1012.91 1012.71 1012.63 1012.51 1012.75 1012.75 1012.35 1012.11 1011.71 1010.63 1008.83 1008.99 1009.55 1009.99 1009.75 1009.19 1009.15 1008.79 1008.55 1008.31 1008.07 1008.11 1008.03 1007.55 1007.55 1007.83 1007.43 1006.63 1005.91
1020.59 1020.07 1019.83 1019.67 1019.47 1019.47 1019.55 1019.51 1019.55 1019.59 1019.75 1019.83 1019.87 1019.83 1019.83 1019.71 1019.47 1019.47 1019.63 1019.63 1019.43 1019.27 1019.23 1019.15 1018.75 1018.47 1018.31 1018.15 1017.99 1017.75 1017.39 1017.23 1017.03 1016.71 1016.51 1016.03 1015.71 1015.55 1015.51 1015.23 1015.07 1014.83 1014.55 1014.03 1013.55 1013.23 1012.91 1012.79 1012.51 1012.67 1012.83 1012.71 1012.47 1012.11 1011.11 1009.59 1009.23 1008.87 1009.27 1009.59 1009.31 1008.91 1008.83 1008.59 1008.51 1008.23 1007.63 1007.43 1007.27 1007.11 1007.19 1006.87 1006.31 1005.51
1020.47 1020.07 1019.87 1019.63 1019.59 1019.71 1019.75 1019.75 1019.71 1019.87 1019.95 1019.99 1020.07 1020.03 1019.91 1019.79 1019.67 1019.75 1019.59 1019.43 1019.39 1019.39 1019.27 1019.03 1018.75 1018.55 1018.39 1018.23 1018.07 1017.75 1017.51 1017.19 1016.99 1016.83 1016.51 1016.23 1016.11 1015.99 1015.87 1015.79 1015.43 1015.07 1014.79 1014.31 1013.83 1013.35 1012.83 1012.67 1012.55 1012.39 1012.55 1013.03 1013.07 1012.63 1011.95 1010.51 1010.23 1009.51 1008.87 1009.19 1009.43 1008.95 1008.59 1008.63 1008.39 1008.11 1007.51 1006.83 1006.83 1006.35 1006.07 1006.15 1005.67 1005.07
1020.31 1020.11 1020.03 1019.99 1019.87 1019.79 1019.87 1019.87 1019.95 1020.07 1020.07 1020.07 1020.07 1020.03 1019.99 1019.87 1019.79 1019.75 1019.63 1019.43 1019.51 1019.55 1019.35 1019.11 1018.87 1018.79 1018.75 1018.31 1017.99 1017.79 1017.59 1017.39 1017.27 1016.99 1016.71 1016.43 1016.27 1016.19 1016.03 1015.83 1015.59 1015.15 1014.99 1014.59 1013.87 1013.35 1012.87 1012.67 1012.43 1012.23 1012.75 1013.35 1013.39 1012.83 1012.27 1011.83 1010.51 1009.35 1008.87 1008.71 1008.75 1008.75 1008.39 1008.35 1008.15 1007.59 1007.31 1007.03 1006.51 1005.87 1005.51 1004.87 1004.39 1004.11
1020.03 1020.07 1020.11 1020.15 1020.07 1019.83 1019.79 1019.79 1019.87 1019.87 1019.95 1019.95 1019.99 1019.95 1019.99 1020.07 1019.99 1019.83 1019.55 1019.63 1019.71 1019.59 1019.39 1019.07 1018.95 1018.83 1018.55 1018.23 1018.07 1017.79 1017.55 1017.39 1017.19 1016.87 1016.71 1016.51 1016.35 1016.31 1016.11 1015.91 1015.87 1015.63 1015.19 1014.59 1014.07 1013.51 1013.23 1012.87 1012.51 1012.95 1013.23 1012.95 1012.55 1011.99 1011.55 1010.95 1009.99 1008.87 1008.47 1007.91 1007.67 1007.83 1007.71 1007.71 1007.83 1007.63 1007.27 1006.75 1006.47 1006.55 1006.27 1005.51 1005.47 1004.55
1019.71 1019.83 1019.79 1019.83 1019.91 1019.95 1020.11 1020.07 1019.95 1019.91 1019.91 1019.83 1019.83 1019.83 1019.87 1019.99 1020.15 1019.87 1019.87 1020.11 1019.91 1019.55 1019.27 1019.07 1018.83 1018.71 1018.47 1018.31 1018.11 1017.99 1017.79 1017.43 1017.11 1016.83 1016.63 1016.47 1016.39 1016.27 1016.23 1016.27 1015.91 1015.35 1014.99 1014.55 1014.15 1013.79 1013.47 1012.99 1012.87 1012.95 1012.91 1012.55 1011.99 1011.47 1011.23 1010.95 1010.39 1009.27 1008.59 1007.87 1007.39 1007.43 1007.43 1007.27 1007.23 1007.23 1007.19 1006.67 1006.71 1006.75 1006.51 1006.11 1005.59 1005.03
1019.83 1019.83 1019.83 1019.79 1019.83 1019.87 1019.91 1019.99 1019.99 1020.07 1020.11 1020.03 1019.91 1019.79 1019.87 1019.95 1019.83 1019.83 1019.75 1019.51 1019.43 1019.39 1019.23 1018.91 1018.71 1018.63 1018.47 1018.23 1018.07 1017.95 1017.79 1017.55 1017.27 1016.95 1016.71 1016.51 1016.31 1016.15 1015.99 1015.83 1015.51 1015.15 1015.03 1014.75 1014.27 1013.79 1013.23 1012.91 1012.75 1012.63 1012.43 1012.15 1011.95 1011.99 1011.67 1010.99 1010.39 1009.51 1008.75 1008.11 1007.59 1007.15 1006.87 1006.83 1006.87 1006.79 1006.67 1006.55 1006.63 1006.71 1006.43 1005.87 1005.39 1005.31
1020.07 1019.99 1019.87 1019.71 1019.71 1019.75 1019.75 1019.83 1019.95 1020.03 1020.07 1020.07 1020.11 1020.15 1020.15 1019.99 1019.71 1019.55 1019.43 1019.35 1019.31 1019.15 1018.99 1018.79 1018.75 1018.67 1018.43 1018.15 1017.87 1017.83 1017.71 1017.51 1017.27 1016.99 1016.83 1016.63 1016.39 1016.15 1015.91 1015.59 1015.39 1015.15 1014.95 1014.55 1014.07 1013.63 1013.15 1012.83 1012.67 1012.59 1012.35 1012.19 1011.83 1011.67 1011.47 1010.83 1010.27 1009.75 1009.11 1008.31 1007.63 1007.19 1006.91 1006.67 1006.47 1006.35 1006.23 1006.11 1006.07 1006.03 1005.87 1005.99 1006.31 1006.23
1020.31 1020.19 1019.95 1019.83 1019.91 1019.91 1019.87 1019.87 1019.91 1019.95 1019.95 1019.95 1020.03 1020.03 1019.95 1019.87 1019.75 1019.63 1019.47 1019.31 1019.19 1019.07 1018.99 1018.95 1018.83 1018.71 1018.47 1018.15 1017.91 1017.71 1017.63 1017.43 1017.23 1017.19 1016.99 1016.71 1016.39 1016.07 1015.75 1015.43 1015.19 1014.99 1014.71 1014.39 1013.99 1013.59 1013.23 1012.91 1012.59 1012.39 1012.31 1012.07 1011.67 1011.51 1011.19 1010.79 1010.19 1009.59 1009.15 1008.55 1007.95 1007.67 1007.31 1006.63 1005.99 1005.59 1005.31 1005.15 1005.03 1004.95 1004.95 1004.99 1004.99 1004.95
1020.63 1020.63 1020.59 1020.43 1020.35 1020.23 1020.07 1019.91 1019.83 1019.87 1019.87 1019.87 1019.91 1019.95 1019.99 1019.87 1019.67 1019.47 1019.35 1019.31 1019.19 1018.95 1018.91 1018.83 1018.59 1018.43 1018.39 1018.11 1017.95 1017.71 1017.51 1017.51 1017.47 1017.15 1016.79 1016.31 1015.91 1015.59 1015.35 1015.15 1014.95 1014.71 1014.51 1014.27 1014.07 1013.59 1013.19 1012.83 1012.43 1012.23 1012.03 1011.63 1011.27 1011.07 1010.71 1010.55 1010.15 1009.67 1009.15 1008.75 1008.27 1007.67 1007.15 1006.67 1006.43 1006.03 1005.63 1004.99 1004.59 1004.75 1004.75 1004.83 1004.79 1004.83
Wind_Speed
3 4 3 3 2 3 2 4 3 2 3 4 4 3 4 4 5 5 5 4 5 4 4 6 2 2 3 4 5 5 5 4 4 7 6 6 7 4 9 9 10 10 8 8 8 8 8 9 9 9 10 10 10 10 10 10 10 10 11 11 13 13 13 11 10 11 11 9 9 9 9 8 8 7
3 2 3 2 2 1 4 3 3 1 2 4 3 3 3 2 4 4 5 5 5 4 4 5 4 2 3 6 5 5 7 8 4 6 7 7 6 8 11 12 11 9 8 8 7 7 8 8 9 9 10 10 10 9 10 10 10 11 11 12 12 12 12 12 10 11 11 11 10 10 9 8 8 7
2 2 3 2 3 3 4 4 5 2 3 3 3 3 3 3 3 4 4 6 3 5 6 5 5 6 5 5 6 6 6 1 2 6 7 7 7 11 12 14 11 10 9 8 7 8 8 8 9 9 9 9 10 10 10 10 11 11 11 11 12 12 12 12 10 11 11 10 10 10 10 9 8 7
1 2 3 3 3 3 4 4 4 4 4 3 4 3 3 3 3 3 4 6 7 6 7 7 6 7 6 5 5 6 5 1 10 4 7 7 7 8 8 7 12 10 10 8 7 7 8 9 9 9 9 9 9 9 9 10 10 10 11 11 11 11 12 11 11 10 11 11 10 10 10 9 9 8
3 3 3 4 4 4 5 4 5 4 4 5 4 4 4 4 4 3 4 6 7 6 6 7 7 7 7 6 5 6 6 6 6 8 7 7 8 8 7 8 8 11 10 8 7 7 9 9 9 9 10 10 9 9 8 10 10 11 11 11 11 11 11 11 11 10 10 11 10 10 10 10 9 8
4 4 4 5 5 5 5 5 5 5 5 4 4 4 4 4 4 3 4 6 7 8 7 6 7 8 6 7 5 7 8 8 8 9 8 7 8 7 7 7 8 9 9 8 7 8 9 10 9 9 10 10 10 10 10 10 10 10 10 10 10 10 11 11 11 10 10 10 10 9 10 10 10 9
5 5 5 6 6 5 5 5 6 5 5 5 5 6 5 6 6 5 5 5 7 8 8 7 8 7 7 8 8 8 8 7 8 8 9 9 8 8 8 8 10 7 8 7 10 10 10 10 10 10 10 10 11 11 11 10 10 10 9 9 9 9 10 10 10 10 9 9 10 11 10 10 10 10
5 5 5 6 6 5 5 5 6 5 5 5 5 5 5 5 5 5 5 5 6 7 8 7 7 7 7 7 7 7 7 9 8 8 8 9 10 10 10 10 11 4 3 10 13 12 11 11 11 11 11 11 11 11 11 11 10 10 9 9 9 9 9 9 9 9 9 9 9 10 10 10 11 9
6 6 7 6 6 6 6 6 6 6 5 5 5 6 5 5 5 5 5 6 6 6 8 8 7 7 8 7 7 7 8 8 8 8 9 9 10 9 10 10 9 11 11 13 13 12 13 13 12 11 12 12 12 12 12 11 11 10 10 9 9 9 9 10 9 8 8 8 8 9 10 10 10 9
7 7 7 7 7 7 7 6 5 5 5 6 6 6 6 6 5 6 6 6 6 7 8 8 8 7 8 7 7 7 7 8 9 9 10 10 8 8 9 9 9 9 9 9 6 8 11 13 13 13 12 13 14 13 13 12 11 11 10 10 10 9 9 9 9 8 8 8 8 9 9 10 10 9
8 8 8 8 8 8 8 8 7 7 7 6 7 6 6 6 6 7 7 6 7 8 8 8 8 8 7 7 8 7 8 9 9 9 9 9 7 7 8 9 8 9 10 11 11 11 10 11 10 9 12 13 15 14 13 13 12 11 11 11 10 10 9 9 8 9 8 8 8 9 9 10 10 9
8 8 8 9 8 8 8 8 8 7 7 6 7 6 6 6 6 7 7 7 7 7 8 8 8 8 8 8 8 8 8 8 7 7 8 10 10 9 7 8 9 9 9 10 10 6 6 9 12 15 15 16 15 15 14 16 15 13 11 11 10 9 9 9 8 8 9 9 9 9 9 10 10 10
8 8 9 9 9 8 6 6 7 8 8 6 6 6 5 6 7 7 7 7 7 7 8 8 7 9 8 8 8 9 7 8 9 8 9 9 9 9 9 8 8 9 9 10 10 9 10 11 11 11 11 8 8 12 16 12 15 11 10 10 9 9 8 8 8 8 8 9 9 9 10 10 11 11
9 10 10 9 8 6 6 8 9 10 10 8 9 7 6 7 7 7 7 7 7 7 8 9 9 9 10 10 9 10 10 10 10 10 9 10 10 10 10 9 8 7 9 10 9 9 9 10 12 10 9 9 9 8 6 5 8 2 7 9 9 9 8 8 8 8 8 8 9 10 10 10 11 11
10 10 10 10 9 9 9 10 11 9 9 9 10 12 12 10 9 8 8 8 8 8 9 9 9 10 11 11 11 11 11 11 12 11 9 11 10 10 11 11 8 5 6 8 9 9 9 9 10 9 10 9 9 8 3 8 3 6 9 9 9 9 8 7 7 8 8 8 9 10 10 10 10 11
9 10 10 10 9 9 9 8 7 10 12 13 12 13 13 13 14 13 10 8 8 8 9 9 10 11 11 11 11 12 12 11 12 12 12 11 12 12 12 11 11 7 6 8 9 11 8 8 10 10 9 8 9 8 3 5 8 9 9 9 9 9 8 7 7 7 7 8 8 9 9 10 10 11
8 8 8 9 8 9 2 4 7 7 7 12 14 14 14 14 14 14 15 14 12 10 9 10 11 10 11 12 11 11 12 11 12 11 12 11 12 12 13 12 12 9 6 9 10 12 10 9 9 10 8 9 9 8 6 9 8 9 10 9 9 9 8 8 7 7 7 8 8 9 10 11 11 12
9 8 8 7 8 8 8 6 6 6 8 7 8 9 9 10 12 15 16 16 17 14 11 11 11 11 10 11 11 11 11 11 12 11 12 12 13 13 13 13 12 11 9 10 11 11 10 8 9 9 9 8 8 8 0 8 9 10 10 9 9 9 9 8 7 8 8 9 9 10 11 11 12 12
9 9 8 9 9 8 8 5 4 6 6 6 7 8 9 9 9 8 8 10 10 10 11 11 12 12 12 12 12 10 9 10 10 10 12 13 13 13 13 13 13 12 10 11 9 11 10 8 9 10 10 10 8 8 4 9 11 9 9 9 10 10 10 9 9 9 9 9 10 10 10 11 12 12
8 7 7 7 7 7 4 10 11 9 6 7 8 8 8 9 8 9 7 7 7 10 11 11 12 12 13 14 13 12 11 11 12 11 12 12 11 12 12 13 12 12 11 11 10 11 11 9 10 10 10 10 9 7 8 4 12 11 9 9 10 10 10 9 9 9 10 10 10 11 11 12 13 13
6 6 3 3 4 4 7 8 10 9 8 6 7 8 8 7 9 9 7 7 11 12 12 13 14 15 17 18 18 17 17 12 9 8 10 11 11 11 13 13 12 12 11 10 10 11 13 10 10 10 9 9 9 9 8 6 8 12 11 11 11 11 11 10 9 9 10 10 10 10 11 12 12 12
5 3 9 4 3 4 7 9 10 10 7 6 8 9 10 11 10 10 9 6 4 12 13 13 14 15 16 17 17 16 16 17 10 7 9 11 10 13 13 13 13 13 11 10 10 10 11 11 9 10 9 9 9 8 7 7 2 11 11 14 13 13 13 12 10 10 11 12 11 11 12 12 10 7
5 3 8 12 10 8 6 9 9 9 8 6 7 8 10 11 11 8 9 8 8 7 9 8 9 10 12 12 11 11 17 19 14 10 12 10 10 12 13 13 12 13 11 7 7 8 10 10 10 10 10 9 8 8 8 7 8 8 7 6 8 14 13 12 13 13 13 13 12 11 10 9 8 6
11 9 2 7 9 10 9 7 7 6 7 6 6 7 8 10 9 8 9 9 9 10 10 11 11 12 12 12 11 9 10 10 12 11 10 9 10 10 10 11 11 12 11 9 8 9 10 9 10 9 10 11 10 9 9 10 9 9 9 8 9 5 12 12 10 15 15 13 14 12 11 11 11 7
5 7 7 2 6 7 9 8 7 4 5 4 6 6 7 7 8 10 9 10 11 9 10 10 10 9 9 9 9 10 7 8 7 6 6 7 8 9 11 11 12 13 12 7 7 8 9 8 10 9 9 10 10 11 10 10 9 9 8 8 8 8 8 6 7 7 11 16 15 14 12 13 16 11
4 3 3 3 2 7 7 9 9 7 4 5 5 5 6 10 9 6 7 7 8 8 8 8 8 8 9 8 8 8 8 8 7 7 8 8 9 8 9 10 11 13 12 10 5 9 10 9 9 10 10 11 12 11 11 10 9 9 8 7 7 8 7 9 8 9 9 6 5 9 11 15 16 19
1 2 3 4 4 8 8 8 8 9 8 8 5 5 7 7 6 6 5 7 7 8 8 8 8 8 8 8 8 8 9 8 8 9 9 10 10 10 10 11 11 13 13 13 12 11 10 11 11 9 12 10 12 12 11 11 9 8 8 8 8 8 8 8 9 10 10 9 7 12 13 14 16 17
2 1 2 4 8 9 9 9 9 9 8 6 8 9 10 8 6 5 5 5 6 7 8 8 8 8 8 8 8 8 9 10 10 10 10 10 10 10 10 11 12 12 12 12 12 10 9 10 11 9 10 10 10 11 12 9 8 10 10 8 8 9 9 8 9 9 9 10 10 4 5 6 8 8
2 3 4 6 8 8 10 11 11 9 8 12 10 10 10 8 5 6 4 6 6 7 7 8 8 8 8 8 9 9 9 10 11 10 9 9 10 10 11 11 10 10 9 9 10 10 10 9 11 10 9 8 10 11 11 11 10 11 10 10 10 9 8 9 10 10 9 9 9 9 9 9 5 8
8 9 7 8 10 11 10 8 6 4 2 7 10 11 10 7 5 3 5 5 5 6 8 8 8 8 8 8 8 9 9 9 8 8 9 9 10 10 10 11 10 10 10 10 10 9 9 8 8 9 10 10 10 11 11 12 11 10 10 10 10 10 9 9 9 9 10 10 9 8 9 8 10 7
6 6 6 5 5 7 8 10 9 6 6 8 7 5 3 3 4 3 4 4 6 6 6 7 7 7 8 8 8 7 7 8 8 8 9 9 10 10 10 11 11 11 9 8 8 8 8 8 8 9 11 11 11 10 10 10 12 11 11 11 10 10 9 9 10 10 10 10 10 10 9 9 10 8
6 6 5 7 8 8 8 9 8 8 5 3 3 3 3 4 2 2 4 4 3 4 6 7 7 7 7 7 7 8 8 7 7 7 8 8 10 10 10 11 11 10 10 9 8 7 7 8 8 7 7 9 11 11 10 11 13 12 12 11 11 11 10 10 10 9 9 8 10 10 9 10 10 9
6 5 6 5 5 5 6 4 3 2 3 1 2 2 2 4 3 3 5 5 5 6 7 6 7 7 7 8 8 8 8 8 8 7 7 8 8 9 9 10 11 11 11 10 8 8 7 7 7 8 8 8 8 10 12 12 11 11 11 11 11 11 10 9 9 9 8 8 8 10 10 8 10 11
5 5 5 4 4 3 3 3 3 2 2 2 3 3 2 4 3 4 5 5 6 7 7 7 7 7 8 7 7 8 8 8 8 9 9 9 8 9 9 10 10 10 10 11 10 10 9 9 8 8 8 8 8 9 9 12 12 11 10 10 10 10 8 9 9 10 9 8 9 10 11 10 9 10
5 5 5 5 3 2 4 3 2 3 4 3 4 4 5 4 5 4 5 6 7 7 7 7 7 7 7 7 7 8 8 9 9 9 8 8 8 9 9 10 10 10 10 11 10 10 10 9 9 10 9 9 9 8 9 11 10 11 10 10 9 9 7 6 7 10 11 9 8 11 11 11 10 9
5 5 5 4 4 2 4 3 3 4 5 5 5 5 5 5 5 5 5 7 7 7 7 7 7 7 7 7 7 8 8 8 9 8 9 9 9 9 9 9 9 10 10 10 11 10 10 10 10 11 12 12 11 12 8 11 13 7 10 11 9 9 9 8 8 9 9 11 9 9 10 11 11 9
6 5 5 5 4 4 3 3 4 4 5 5 6 6 6 6 5 5 6 7 6 6 7 8 7 7 7 7 8 8 8 8 8 8 9 8 8 9 9 9 9 9 10 10 10 10 10 10 9 9 10 11 12 12 11 8 7 11 9 10 10 9 10 9 10 12 11 10 11 11 11 12 12 11
6 5 5 5 4 4 4 5 5 5 5 5 6 6 6 6 5 5 5 5 5 6 7 7 7 7 7 8 8 8 8 8 8 8 8 8 8 8 8 9 10 9 10 10 10 10 10 10 10 9 8 9 10 11 13 11 9 7 7 8 12 12 12 12 13 12 11 10 11 11 11 12 12 11
6 6 5 5 5 5 5 5 5 5 5 5 6 6 6 7 7 7 6 5 5 6 7 7 7 7 8 8 7 8 8 8 8 8 8 8 8 9 9 9 10 10 10 12 10 9 9 9 9 8 6 7 9 10 10 13 16 13 9 10 11 14 14 12 13 13 12 12 11 11 11 11 14 15
6 6 6 6 7 7 6 6 6 6 6 6 6 6 7 7 8 8 8 7 7 7 7 7 7 7 7 7 8 8 8 9 8 8 8 9 9 9 9 9 10 11 11 11 11 9 8 9 7 7 9 9 11 12 13 14 15 16 14 14 21 18 13 11 12 12 13 12 11 12 13 11 12 10
6 6 6 6 7 6 6 7 7 7 7 7 7 7 7 7 8 8 8 8 8 8 8 9 8 8 8 8 8 8 9 9 8 8 8 9 9 9 10 11 11 10 10 11 11 10 9 8 10 12 13 12 12 12 12 12 13 12 12 10 8 8 15 15 12 13 14 12 12 13 14 13 12 11
7 7 7 7 7 7 7 7 7 6 6 7 8 8 8 8 9 8 8 9 8 9 9 9 9 9 8 8 8 8 9 9 9 9 9 9 9 10 10 9 10 10 10 11 11 11 11 10 11 10 10 10 10 10 12 12 13 13 13 12 11 13 13 14 17 15 14 13 13 14 14 14 12 13
7 8 8 8 8 8 8 7 6 7 8 7 7 7 8 9 9 9 9 9 9 10 10 10 10 10 10 9 8 9 9 10 10 10 10 10 10 10 10 9 10 10 11 11 11 12 11 11 9 10 10 10 10 10 12 13 13 14 14 14 13 10 10 11 12 15 16 18 18 16 14 15 14 15
8 8 8 7 8 8 7 7 7 8 9 9 8 8 8 9 9 9 9 9 10 10 10 10 11 11 11 10 9 9 10 10 10 11 11 11 11 10 11 11 11 11 11 11 11 11 11 11 10 10 10 10 10 11 12 13 14 13 13 14 14 14 14 12 11 12 13 16 20 22 22 19 16 15
7 8 8 9 8 9 8 7 7 7 7 8 8 8 9 9 10 10 10 10 10 11 11 11 12 11 12 11 11 11 11 12 13 12 11 11 11 10 10 11 11 11 11 11 12 13 11 11 11 10 11 11 10 11 13 13 14 14 15 15 16 14 13 12 12 12 11 11 1 2 3 3 4 4
Wind_Direction
248 215 195 245 280 298 322 299 303 42 333 316 328 320 336 350 320 325 328 335 326 332 344 318 98 46 323 309 310 294 295 46 8 323 311 313 298 52 332 307 296 289 283 289 297 300 304 305 304 297 300 302 297 289 280 274 274 267 260 254 253 255 257 253 243 241 238 227 229 240 249 261 271 281
257 272 260 255 265 254 265 255 300 87 294 289 296 324 340 328 312 323 314 321 308 317 322 315 338 25 321 298 302 328 322 113 309 326 312 309 325 344 301 291 279 274 273 281 288 296 299 301 299 300 302 302 299 289 280 274 267 264 262 260 259 257 258 256 246 243 239 233 228 232 242 253 265 275
249 286 281 280 270 291 302 308 284 333 290 279 286 300 305 301 306 305 304 298 299 319 307 305 319 317 306 321 326 310 315 182 4 313 319 307 331 299 279 260 253 246 256 259 270 283 290 291 294 297 299 299 300 289 279 278 271 265 263 266 266 267 264 262 254 246 242 232 221 229 236 245 256 267
223 252 265 261 271 276 274 282 293 267 247 275 286 286 289 281 278 291 293 290 294 300 302 312 305 299 325 322 301 315 294 208 181 321 303 309 281 271 301 232 213 227 229 242 253 274 284 286 291 296 296 298 296 286 275 282 281 272 269 269 270 271 271 268 262 252 246 239 228 225 232 239 248 257
244 245 261 266 272 275 273 271 273 282 272 253 251 251 253 262 268 273 291 292 295 296 305 300 301 318 315 306 321 298 300 302 322 313 300 306 300 298 299 307 276 213 212 222 243 266 277 284 289 292 293 293 292 288 276 282 282 280 278 275 273 274 275 273 268 260 253 244 233 223 229 234 241 248
262 242 238 251 250 238 251 268 274 271 282 277 272 261 256 268 269 263 279 291 297 297 298 302 315 303 305 302 314 311 307 310 311 307 309 299 298 300 303 302 302 181 198 209 241 262 270 281 282 281 284 285 289 288 283 280 280 278 276 273 274 275 276 276 273 267 259 253 238 219 223 231 234 239
243 242 244 247 243 244 240 241 253 270 277 289 299 299 299 300 297 300 299 293 293 300 300 304 297 304 313 305 308 304 302 306 298 303 302 306 309 304 302 300 304 157 188 215 243 249 263 269 269 271 272 276 279 281 280 278 279 278 271 267 269 273 280 282 282 277 270 261 250 240 221 225 230 233
237 247 251 256 262 271 266 262 273 274 272 272 264 273 278 278 285 288 279 274 283 292 296 297 298 300 299 294 291 292 296 295 307 303 304 299 298 307 305 302 297 319 279 252 243 246 254 251 255 258 262 268 269 272 275 276 275 272 266 263 265 272 277 280 282 285 283 276 264 247 234 224 226 229
260 256 256 253 248 243 249 251 251 256 253 258 272 272 266 270 273 279 283 278 270 275 281 287 284 287 282 283 284 289 294 297 291 292 293 298 298 298 302 302 308 304 268 245 241 241 238 242 240 245 257 257 261 266 270 274 272 267 267 265 261 264 268 272 272 270 269 266 262 255 243 234 230 226
243 246 244 247 245 246 248 255 259 268 270 264 259 263 271 277 278 272 267 261 263 267 275 279 285 278 287 292 292 290 286 290 299 297 292 289 292 295 299 308 309 309 315 321 304 238 228 233 230 242 240 245 253 260 267 270 267 262 261 261 261 258 262 265 267 266 261 257 256 251 242 237 231 229
244 243 242 239 242 248 249 253 250 242 240 250 264 262 267 265 266 269 269 273 271 273 275 280 281 284 281 289 293 290 288 284 283 290 295 296 297 296 300 300 303 306 311 309 269 261 282 294 278 250 230 240 249 255 260 259 256 257 252 255 253 251 250 252 255 255 253 251 247 244 240 236 233 223
254 249 246 245 237 235 240 244 250 248 251 253 255 258 260 266 268 273 281 286 287 286 287 286 295 298 296 284 281 286 278 276 273 280 293 297 300 299 291 288 298 303 300 297 309 292 254 260 240 239 242 243 246 246 246 245 250 244 247 242 244 245 240 239 242 243 243 244 243 241 237 233 230 226
255 256 258 255 252 244 232 250 271 291 318 297 278 273 272 267 269 271 277 276 277 277 279 285 284 281 282 286 283 288 290 289 293 295 288 285 287 292 296 295 294 295 294 297 306 316 319 308 309 315 314 299 242 232 225 242 225 228 243 242 244 245 244 240 238 239 239 238 238 238 236 232 228 224
258 258 259 261 267 283 259 232 227 236 250 258 273 283 280 276 272 270 268 268 267 273 280 282 285 287 289 293 293 292 292 295 287 283 286 287 291 292 290 289 286 293 294 300 305 305 308 310 307 304 302 302 287 311 285 358 15 221 232 252 259 258 255 249 242 240 241 238 237 237 235 232 228 223
262 264 261 260 245 218 223 228 230 237 236 237 241 251 259 264 267 268 266 263 270 275 278 281 282 288 293 293 297 294 295 294 297 300 296 290 291 290 294 294 292 267 289 295 296 297 303 301 297 299 298 299 304 299 338 101 229 251 270 270 270 268 262 254 245 241 240 238 236 234 232 231 229 224
256 257 257 254 254 239 230 245 220 218 226 231 233 237 242 245 245 247 256 267 271 270 275 280 283 288 287 290 290 293 298 301 303 302 299 293 290 291 287 287 289 297 293 293 295 292 292 292 292 291 286 292 295 309 346 263 245 259 263 265 268 270 266 255 245 240 239 239 237 231 227 224 224 223
261 264 266 270 275 280 232 197 248 254 232 209 221 231 238 242 243 241 239 244 254 270 271 275 280 279 287 288 289 295 302 306 298 297 292 291 290 288 287 286 292 294 305 294 285 290 296 293 286 290 298 302 306 304 243 212 239 243 257 264 267 267 264 255 244 236 232 237 232 228 221 216 215 216
260 254 255 256 257 259 266 260 246 241 238 245 226 225 231 241 234 228 230 236 240 242 255 267 273 274 272 277 287 293 296 293 292 297 294 299 295 292 290 294 289 286 283 277 287 285 285 292 299 297 298 302 299 290 11 172 220 239 259 269 263 260 259 252 241 233 231 227 227 223 219 214 212 214
257 262 259 259 261 260 258 270 300 256 257 257 256 251 251 253 263 261 245 229 226 224 230 245 255 265 267 268 277 285 291 295 298 301 305 301 296 291 287 282 273 271 258 254 261 273 282 291 291 295 304 306 303 303 293 215 220 226 243 252 253 249 247 244 233 228 226 228 224 218 215 210 210 211
261 256 256 257 258 262 268 48 31 24 332 296 281 272 264 262 260 260 254 260 263 274 286 284 290 299 316 324 311 304 302 299 292 294 290 287 285 285 284 282 284 279 284 275 273 278 280 283 291 298 300 304 301 304 296 264 202 207 215 225 239 249 256 252 245 235 230 228 225 218 209 207 206 206
255 255 269 280 287 282 64 43 42 14 340 288 284 283 287 290 288 288 295 259 235 243 239 256 270 278 279 281 284 284 280 270 279 293 287 276 277 279 284 284 284 283 291 293 299 294 289 294 298 299 301 303 303 294 291 301 172 193 200 217 225 237 236 240 244 245 245 241 235 223 211 206 203 201
250 89 68 20 347 29 54 38 39 11 332 302 292 287 290 295 293 296 299 306 267 229 233 244 252 256 261 264 264 266 266 264 251 239 259 277 285 283 282 284 289 295 297 298 301 287 283 299 301 303 303 298 287 291 305 312 265 181 207 214 221 224 227 229 232 239 239 239 236 229 218 206 188 187
234 119 70 65 60 60 59 47 33 6 347 309 308 301 295 294 294 296 314 312 312 313 300 290 279 272 254 250 253 247 239 244 238 229 244 268 279 282 284 288 293 290 287 300 328 295 294 299 303 309 305 298 303 304 302 303 298 302 300 270 218 218 226 224 232 234 235 235 232 230 222 203 189 226
347 319 115 50 60 70 52 41 22 9 358 330 315 309 297 293 298 347 332 322 320 308 299 296 294 290 289 286 278 280 285 251 218 229 242 256 276 285 282 285 280 282 289 297 316 303 300 303 302 309 300 303 304 307 305 299 301 304 304 297 298 229 201 223 234 235 240 229 226 223 208 189 198 237
347 20 50 36 46 29 23 357 350 348 332 301 303 299 295 325 348 329 309 313 316 301 297 292 289 292 296 297 294 293 289 301 309 294 278 276 269 276 285 289 291 287 287 306 35 306 299 301 293 298 292 290 290 293 300 300 298 299 303 303 298 296 299 274 281 280 215 222 223 211 196 191 202 225
19 15 5 297 59 18 352 331 331 319 286 268 267 298 319 322 331 329 302 298 299 303 302 302 308 312 309 308 311 310 306 310 317 316 309 306 306 297 285 287 291 291 292 301 337 303 301 291 287 287 287 290 292 295 297 295 294 296 300 303 297 294 289 292 292 291 295 283 213 197 201 194 202 216
203 251 263 280 13 350 330 305 302 298 291 261 238 257 278 279 290 278 271 299 302 295 300 305 304 304 304 316 321 315 318 316 320 316 309 307 305 301 296 289 283 284 289 295 298 298 293 288 286 287 291 295 295 295 289 291 301 310 296 296 299 296 290 291 281 286 294 296 307 158 192 191 207 214
322 228 303 302 332 311 302 298 286 282 273 271 288 278 269 263 250 258 269 270 286 299 298 303 310 314 322 320 315 322 325 317 316 308 303 297 293 291 291 290 287 286 289 289 287 278 270 272 282 284 280 286 289 293 294 298 292 293 296 300 294 292 292 288 287 285 278 279 285 213 186 196 205 209
326 14 316 300 295 294 286 279 275 264 254 247 246 253 258 255 243 227 274 334 335 323 328 328 327 317 317 314 311 320 317 310 302 298 299 302 302 296 290 287 285 284 281 280 281 278 274 276 279 283 280 271 277 280 286 289 290 293 298 299 291 290 290 286 288 288 284 286 287 286 285 283 250 184
289 288 280 271 267 262 252 252 245 254 234 231 245 252 249 245 255 357 358 345 331 319 309 313 308 306 304 306 320 313 302 306 310 317 318 317 310 309 309 304 300 297 290 287 284 284 284 277 274 276 279 282 275 279 280 286 290 291 292 286 286 289 274 278 279 279 277 276 275 273 274 274 277 269
231 216 221 253 264 280 284 277 282 288 253 246 247 250 253 312 319 331 0 340 316 312 315 311 308 307 308 311 303 299 308 305 308 320 322 315 315 316 314 310 301 299 297 291 286 286 286 287 286 291 287 289 291 284 288 289 288 287 284 286 286 282 296 294 288 282 287 285 283 279 266 265 268 257
320 308 263 242 242 234 234 230 222 217 242 285 279 284 329 309 322 43 320 296 317 331 324 311 310 305 306 305 313 310 302 303 303 310 307 310 310 310 313 305 304 306 304 303 300 295 286 285 288 286 287 290 290 297 294 289 286 284 283 282 282 282 284 285 286 288 284 281 279 280 278 275 276 274
290 269 258 255 248 244 249 245 254 258 228 194 299 278 331 310 295 4 343 342 346 337 320 314 310 309 318 316 312 309 309 310 313 307 301 299 297 301 302 301 303 305 309 312 311 307 301 296 286 286 285 284 275 281 292 289 282 281 285 287 288 289 290 284 288 289 292 286 281 282 277 266 268 268
295 274 277 280 274 277 280 282 281 290 310 299 305 317 325 290 324 349 331 341 345 330 314 311 313 322 316 311 314 314 312 315 311 313 305 296 298 298 299 301 301 305 311 312 313 312 315 313 307 295 282 271 268 256 259 278 281 284 281 288 286 289 295 296 291 287 278 274 276 275 275 278 272 264
250 271 267 258 247 242 267 265 287 321 294 306 307 314 318 320 324 338 333 357 335 321 319 320 323 317 316 316 317 317 315 311 310 306 306 305 301 297 302 301 303 310 313 314 314 321 328 331 324 314 308 302 295 279 239 238 276 282 291 284 287 285 289 294 299 297 299 291 287 289 286 276 274 280
275 278 278 273 267 275 280 287 304 303 314 315 314 314 317 322 329 333 347 349 323 320 321 328 318 315 318 318 320 315 309 310 306 312 315 314 306 305 304 308 316 316 315 309 311 317 321 319 323 321 315 313 308 303 300 213 214 273 292 296 295 299 298 295 286 284 282 281 275 271 276 277 280 279
279 279 276 274 263 264 277 298 298 305 307 314 317 319 317 316 328 340 343 319 306 317 328 317 311 317 316 318 316 307 310 313 312 314 309 308 314 314 312 310 312 312 308 307 309 308 304 301 301 299 300 301 303 305 303 332 256 236 268 289 295 295 296 292 287 285 278 274 274 272 274 281 281 282
281 277 273 277 292 296 297 299 306 310 310 313 308 305 309 321 328 329 316 303 324 324 320 313 315 315 320 320 311 315 315 312 313 310 311 312 311 312 311 310 307 309 308 304 302 299 300 296 296 295 298 305 313 304 308 309 304 285 227 257 293 298 297 291 287 284 285 282 282 281 279 277 278 277
257 263 272 281 288 285 287 293 298 294 294 300 306 306 310 312 313 316 312 319 331 320 315 309 312 322 313 306 311 312 313 315 312 310 309 310 312 311 311 307 306 307 307 301 299 298 301 300 297 306 343 327 301 301 305 301 296 294 281 239 269 280 277 282 286 290 292 291 287 288 284 285 284 278
268 272 280 284 282 284 284 285 285 287 291 291 296 304 310 308 311 313 311 321 324 319 308 308 310 306 302 309 311 310 307 306 304 306 310 309 310 309 305 313 310 304 296 294 298 304 306 302 319 354 334 313 303 296 291 285 282 283 283 259 227 233 261 276 280 285 290 292 297 295 292 288 287 292
270 272 270 274 279 279 280 280 284 291 291 293 293 296 296 302 301 303 320 315 310 307 310 309 308 307 306 311 308 309 307 304 303 303 306 304 303 302 306 304 291 291 294 297 301 299 301 311 332 328 305 291 283 283 278 275 277 284 291 296 314 253 238 248 265 278 280 288 291 290 289 288 292 291
279 280 281 278 275 275 276 276 279 284 290 290 293 298 301 300 298 294 292 284 297 306 302 305 310 309 307 307 306 305 302 306 307 304 303 304 304 302 296 292 295 300 298 297 298 299 302 302 298 292 291 293 290 288 284 284 288 291 293 301 293 286 262 245 250 258 268 281 289 286 283 288 284 280
280 276 276 277 279 280 277 274 274 277 283 296 295 298 294 292 294 296 298 301 302 302 305 305 307 306 304 301 302 304 303 301 302 303 305 302 300 298 297 294 295 298 296 293 293 295 297 297 296 294 291 288 287 284 283 286 289 291 293 293 296 304 303 296 270 254 254 253 247 252 268 277 285 278
291 289 287 291 288 284 278 269 271 274 277 277 283 286 288 292 294 293 293 296 299 300 302 301 301 302 303 303 301 298 297 298 303 305 301 297 293 290 289 291 290 291 293 293 295 296 299 298 293 293 290 286 290 288 286 288 285 289 292 294 297 299 294 296 290 271 249 239 244 245 247 254 270 290
290 296 302 306 309 305 294 283 269 271 275 276 278 281 283 284 287 290 291 293 295 301 302 301 299 301 302 301 299 297 299 302 298 290 288 288 287 288 288 289 290 289 290 294 295 293 293 293 294 293 284 282 282 282 284 281 284 288 286 286 288 290 292 294 294 290 290 287 80 138 208 233 261 288